ONEWEB-0069, 45430

Orbit data source: Space-Track

ONEWEB-0069, 45430 is a payload satellite owned by One Web (UK) in LEO that was launched on Sat, 21 Mar 2020 UTC via a SOYUZ-2-1B launch vehicle from the Tyuratam Missile And Space Complex (TTMTR). Payload-class satellites include a variety of spacecraft equipped with specific instruments for various scientific and technological missions. These include communications satellites like Starlink; space stations such as the ISS; scientific satellites like the Hubble; Earth observation satellites from companies like Planet Labs, Umbra, and HawkEye 360; GPS; miniature CubeSats for education and research; and military/defense satellites.

Loading next visibility...
Identifier
45430, 2020-020G
Orbit
LEO
Country
Flag of UKUK
Related business
Manufacturer
One Web
Mission
Operational Commercial Communications
Bus & Motor
ARROW, Unknown motor
Mass
148 kg wet, ~140 kg dry
Launch date (UTC)
2020-03-21 (6 years ago)
Launch vehicle
SOYUZ-2-1B
Launch site
Tyuratam Missile And Space Complex (TTMTR)
Object type
Payload
Rocket body
Debris
Shape & HBR
Trap Box + 2 Pan, 6.7 m
Radar Cross Section
3.464 m², Large (>1 m²)

Expand to show TLE details & history
Last TLE update: 19 hours ago

TLE from 19 hours ago
0 ONEWEB-0069
1 45430U 20020G   25286.85310299  .00000625  00000-0  17279-2 0  9991
2 45430  87.8820  70.1162 0001555  92.9727 267.1579 13.11416872270381
Epoch: 2025-10-13T20:28Z
TLE epoch observation values (Epoch: 2025-10-13T20:28:28.098Z)
Latitude
-0°
Longitude
100.3492°
Altitude
1,220.631 km
Speed
7.244 km/s
True Right ascension
04h 40m 27s
True Declination
0° 00' 00"
Sunlit
Object was in full shadow at epoch
Visualization orbit readout
Latitude
Unknown
Longitude
Unknown
Altitude
Unknown
Speed
Unknown
Apparent Right ascension
Unknown
Apparent Declination
Unknown
Sunlit
N/A
Visualization observer readout
Local Sidereal Time
10:00:04
Azimuth
Unknown
Elevation
Unknown
Doppler factor
Unknown
Orbital elements
Apogee altitude
1,215.982 km
Perigee altitude
1,213.621 km
Semi-major axis
7,592.938 km
Eccentricity
0.00016
Inclination
87.882°
RAAN
70.1162°
Arg. of periapsis
92.9727°
True anomaly
267.1401°
Mean anomaly
267.1579°
Eccentric anomaly
267.149°
Mean motion
3.28041 °/min
Orbital period
109.74 mins
BSTAR
0.0017279
Loading maneuver chart data...
Computing Atmospheric mass density...
Loading historical data...
Loading historical data...
Loading historical data...
Loading historical data...
Loading historical data...
Loading historical data...
Loading historical data...

Documentation

Showing up to 5 results
|